Find Starlink 11131

NORAD ID: 59756 Int'l Des: 2024-091 Owner: SPXS Country: US Constellation: starlink operational
LEOCIRCULAR

当前视图

正在加载3D地球...

About Starlink 11131

Starlink 11131 (NORAD 59756) is a starlink constellation satellite (v2 mini d2c) launched May 14, 2024 by SPXS of US. It operates in LEO, CIRCULAR orbit with a mass of 960.00 kg.

关于 Starlink 11131

正在加载描述...

即将过境

Passes for default location (London). Set your location on the main map for personalized predictions.

高度历史

Loading altitude history...

两行轨道根数

1 59756U 24091D 26167.45670074 -.00003000 00000-0 -19896-4 0 9995
2 59756 53.1593 79.5410 0001372 82.5183 277.5991 15.69724034121023
Epoch: Jun 16, 2026 • Age: 7 hours

当前状态

高度 371.1 km
速度 7.69 km/s
星下点 -34.32°S, 133.78°W
发射日期 May 14, 2024
运行时间 2 years
类型 internet

技术详情

分类 Payload
质量 960.00 kg
干质量 910.00 kg
总质量 960.00 kg
长度 0.30 m
直径 4.10 m
跨度 29.00 m
形状 Box + pan
制造商 SPXS
平台类型 Starlink V2MD
阶段状态 In Orbit
所有者/国家 SPXS/US

Most Searched